[[{"header":{"parameterUnit":"m.s-1","parameterCategory":2,"la1":30.2991,"la2":30.254,"lo1":-89.0895,"lo2":-89.0444,"dy":0.0017,"dx":0.0017,"nx":28,"ny":28,"refTime":"2024-06-23T09:00:00:Z","depth":"0","parameterNumber":2,"parameterNumberName":"U-component_of_CURRENTS"},"data":[0,0,0,0,0,0,0,0,0,0,0,0,0,0,0,0,0,0,0,0,0,0,0,0,0,0,0,0,0,0,0,0,0,0,0,0,0,0,0,0,0,0,0,0,0,0,0,0,0,0,0,0,0,0,0,0,0,0,0.366,0.366,0,0.3742,0.3743,0.3744,0.3841,0.3843,0.3844,0.3846,0.39,0.39,0.39,0,0,0,0,0,0,0,0,0,0,0,0,0,0.3595,0.3596,0.3659,0.3661,0.3662,0.3742,0.3743,0.3744,0.3841,0.3843,0.3845,0.3846,0.39,0.39,0.39,0,0,0,0,0,0,0,0,0,0,0,0,0,0.3644,0.3596,0.3659,0.372,0.3727,0.3742,0.3743,0.3745,0.384,0.3843,0.3845,0.3847,0.39,0.39,0.39,0.3853,0,0,0.39,0.39,0,0,0,0,0,0,0,0,0.3641,0.3646,0.371,0.3716,0.3723,0.3785,0.3741,0.378,0.384,0.3796,0.3846,0.3848,0.3857,0.3861,0.3871,0.3856,0.3858,0.39,0.39,0.39,0.39,0,0,0,0,0,0,0,0.3638,0.3643,0.3691,0.3711,0.3719,0.3747,0.3756,0.3749,0.3811,0.38,0.3808,0.3818,0.3861,0.387,0.3873,0.3859,0.39,0.39,0.39,0.39,0.3878,0.3878,0,0,0,0,0,0,0.3626,0.364,0.3689,0.3694,0.3688,0.3746,0.3757,0.3762,0.3813,0.3823,0.3815,0.3822,0.3869,0.3872,0.3875,0.3883,0.39,0.39,0.39,0.3879,0.3878,0.3878,0,0,0,0,0,0,0.3624,0.3629,0.3686,0.367,0.3679,0.3745,0.375,0.3762,0.3783,0.3825,0.3835,0.3826,0.3871,0.3875,0.3883,0.3884,0.39,0.39,0.388,0.3879,0.3878,0.386,0,0,0,0,0,0,0.3622,0.3628,0.3623,0.3669,0.368,0.3707,0.3748,0.3762,0.3786,0.3795,0.3835,0.3843,0.3873,0.3883,0.3883,0.3884,0.39,0.388,0.3879,0.3878,0.3861,0.3859,0.3856,0,0,0,0,0,0.3619,0.3622,0.3622,0.3629,0.3673,0.3707,0.3715,0.3769,0.3784,0.3795,0.3821,0.3842,0.3877,0.3882,0.3882,0.3883,0.3881,0.3879,0.3878,0.3862,0.3859,0.3857,0,0,0,0,0,0,0.3606,0.3633,0.3635,0.3648,0.3673,0.3725,0.3741,0.3759,0.3786,0.3793,0.3828,0.3837,0.3851,0.3856,0.3861,0.3873,0.3884,0.3882,0.3872,0.3869,0.3866,0.3889,0.39,0,0,0,0,0,0.3591,0.3597,0.3625,0.3636,0.3645,0.3681,0.3698,0.3727,0.3758,0.3774,0.3796,0.3817,0.384,0.3847,0.3865,0.3854,0.3869,0.3856,0.3854,0.3852,0.387,0.3883,0.3884,0.3873,0.3873,0.3873,0,0,0.359,0.3605,0.361,0.3632,0.3656,0.3676,0.3699,0.3725,0.3746,0.3769,0.3795,0.3808,0.3835,0.3848,0.3852,0.3855,0.3857,0.385,0.3849,0.3868,0.3882,0.3883,0.3884,0.3873,0.3873,0.3873,0,0,0.3599,0.36,0.3607,0.3624,0.3649,0.367,0.3672,0.3705,0.3727,0.3738,0.3769,0.3779,0.3798,0.3827,0.3843,0.3826,0.3848,0.3826,0.3828,0.384,0.3841,0.3843,0.3845,0.3847,0.382,0.382,0.382,0,0.3595,0.3604,0.3617,0.3632,0.3646,0.3666,0.3678,0.3702,0.3733,0.3746,0.3749,0.3788,0.3797,0.3832,0.3833,0.3824,0.3832,0.3839,0.3838,0.384,0.3842,0.3844,0.3847,0.3819,0.3819,0.3819,0.3819,0,0.3612,0.3616,0.3626,0.3644,0.3661,0.3674,0.3702,0.3713,0.3723,0.3749,0.3774,0.3784,0.3815,0.3808,0.3818,0.3835,0.3837,0.3837,0.3849,0.3843,0.3844,0.3847,0.3818,0.3818,0.3818,0.3819,0,0,0.3598,0.3628,0.3627,0.3626,0.3662,0.3671,0.3705,0.3736,0.3758,0.3774,0.38,0.3824,0.3829,0.3846,0.3848,0.3849,0.385,0.3846,0.3847,0.3855,0.3873,0.3824,0.3822,0.3852,0.3853,0.3854,0.3862,0,0.3598,0.3615,0.3637,0.3646,0.365,0.3679,0.3709,0.3741,0.3769,0.3796,0.3816,0.3842,0.3846,0.3847,0.3855,0.3863,0.386,0.3848,0.3874,0.3875,0.3838,0.3825,0.3672,0.3664,0.3865,0.3866,0.3866,0,0.3588,0.3602,0.361,0.3628,0.3633,0.3649,0.3684,0.3717,0.3779,0.3803,0.3846,0.3864,0.3891,0.3872,0.3906,0.3901,0.3889,0.3883,0.3883,0.3853,0.3832,0.3706,0.3662,0.3556,0.3871,0.3871,0.387,0,0.354,0.3568,0.3567,0.3575,0.3614,0.3623,0.3653,0.3716,0.3748,0.3811,0.3831,0.3884,0.39,0.3913,0.3922,0.3912,0.3943,0.3925,0.3871,0.3867,0.3752,0.3736,0.3616,0.3932,0.3932,0.3932,0.3932,0,0.3509,0.3501,0.3541,0.3536,0.354,0.3587,0.3611,0.3657,0.3728,0.3764,0.3829,0.3867,0.3909,0.3937,0.3934,0.3925,0.3961,0.3877,0.3869,0.3738,0.3722,0.3638,0.3605,0.3933,0.3933,0.3933,0.3932,0,0.344,0.3467,0.3463,0.3501,0.3511,0.3515,0.3579,0.36,0.3685,0.3733,0.3751,0.3858,0.3908,0.3937,0.396,0.3932,0.3805,0.3906,0.3749,0.3721,0.3551,0.3523,0.3304,0.3212,0.3836,0.3835,0.3834,0,0.3403,0.3395,0.3424,0.3418,0.343,0.3455,0.347,0.3564,0.3596,0.3729,0.3737,0.3823,0.3865,0.3904,0.3876,0.3856,0.3753,0.3691,0.3637,0.3521,0.3485,0.3353,0.3283,0.3468,0.3464,0.3461,0.3458,0,0.3333,0.3344,0.3344,0.3344,0.3345,0.3358,0.3393,0.3416,0.3528,0.3567,0.3653,0.3705,0.3775,0.3711,0.3702,0.3676,0.3496,0.3624,0.3538,0.3216,0.303,0.2945,0.3489,0.343,0.3433,0.3435,0.3437,0.3438,0.3276,0.326,0.3265,0.3242,0.3251,0.3246,0.3212,0.3267,0.3299,0.3331,0.3498,0.3505,0.3539,0.3518,0.3468,0.329,0.3301,0.3164,0.315,0.3034,0.2899,0.3385,0.3302,0.3304,0.3305,0.3307,0.3308,0,0.3185,0.3172,0.316,0.3124,0.3079,0.3126,0.313,0.3076,0.3047,0.3149,0.3193,0.3191,0.3127,0.3125,0.2991,0.2826,0.2699,0.2737,0.2511,0.2478,0.2934,0.2874,0.2652,0.2652,0.2652,0.2652,0.2652,0.2653,0.314,0.3084,0.3065,0.2951,0.292,0.2826,0.2795,0.2749,0.2779,0.273,0.2711,0.2764,0.283,0.2744,0.2549,0.2474,0.2263,0.2135,0.2161,0.2491,0.2529,0.2565,0.2499,0.2203,0.2202,0.1582,0.1577,0.1574]},{"header":{"parameterUnit":"m.s-1","parameterCategory":2,"la1":30.2991,"la2":30.254,"lo1":-89.0895,"lo2":-89.0444,"dy":0.0017,"dx":0.0017,"nx":28,"ny":28,"refTime":"2024-06-23T09:00:00:Z","depth":"0","parameterNumber":3,"parameterNumberName":"V-component_of_CURRENTS"},"data":[0,0,0,0,0,0,0,0,0,0,0,0,0,0,0,0,0,0,0,0,0,0,0,0,0,0,0,0,0,0,0,0,0,0,0,0,0,0,0,0,0,0,0,0,0,0,0,0,0,0,0,0,0,0,0,0,0,0,0.0405,0.0405,0,0.0378,0.0378,0.0377,0.0348,0.0348,0.0348,0.0348,0.028,0.0278,0.0277,0,0,0,0,0,0,0,0,0,0,0,0,0,0.0381,0.0381,0.0405,0.0405,0.0405,0.0378,0.0378,0.0377,0.0348,0.0348,0.0348,0.0348,0.028,0.0279,0.0277,0,0,0,0,0,0,0,0,0,0,0,0,0,0.0375,0.0382,0.0405,0.0388,0.0387,0.0378,0.0378,0.0377,0.0349,0.0348,0.0348,0.0347,0.0281,0.0279,0.0276,0.027,0,0,0.0269,0.0268,0,0,0,0,0,0,0,0,0.0375,0.0376,0.0391,0.039,0.0388,0.0368,0.0344,0.034,0.0349,0.0361,0.0348,0.0347,0.0307,0.0302,0.0296,0.0267,0.0264,0.0269,0.0268,0.0267,0.0266,0,0,0,0,0,0,0,0.0376,0.0376,0.0393,0.0391,0.0389,0.0365,0.0364,0.0343,0.0335,0.036,0.0358,0.0358,0.0305,0.0299,0.0295,0.0263,0.0269,0.0267,0.0266,0.0265,0.0229,0.023,0,0,0,0,0,0,0.0386,0.0377,0.0394,0.0392,0.0382,0.0366,0.0365,0.0373,0.0336,0.033,0.0359,0.0357,0.0303,0.0297,0.0292,0.0306,0.0267,0.0264,0.0263,0.0229,0.0229,0.023,0,0,0,0,0,0,0.0386,0.0388,0.0395,0.0385,0.0384,0.0368,0.0377,0.0373,0.037,0.0335,0.0329,0.036,0.0302,0.0295,0.0284,0.0302,0.0263,0.0261,0.0228,0.0229,0.023,0.0319,0,0,0,0,0,0,0.0385,0.0388,0.0397,0.0386,0.0385,0.0402,0.0377,0.0373,0.0371,0.0369,0.0334,0.0327,0.0302,0.0287,0.0281,0.0298,0.0259,0.0228,0.0229,0.023,0.0315,0.0322,0.0328,0,0,0,0,0,0.0384,0.04,0.0397,0.0399,0.0398,0.0404,0.0401,0.0386,0.0372,0.038,0.0355,0.0329,0.0288,0.0286,0.0279,0.0296,0.0227,0.0228,0.0229,0.0312,0.0321,0.0328,0,0,0,0,0,0,0.0389,0.0398,0.0395,0.0411,0.0413,0.04,0.0404,0.0392,0.0379,0.0375,0.0337,0.0329,0.0326,0.0296,0.0294,0.0286,0.0252,0.0252,0.0318,0.0326,0.0332,0.0354,0.0258,0,0,0,0,0,0.0396,0.0414,0.0414,0.0428,0.0432,0.0419,0.0418,0.0411,0.0398,0.0392,0.0366,0.0339,0.0324,0.0314,0.0293,0.0289,0.026,0.0293,0.0299,0.0305,0.0317,0.0297,0.0304,0.0233,0.0233,0.0233,0,0,0.04,0.0409,0.0417,0.0431,0.0429,0.0447,0.0418,0.0426,0.0441,0.0386,0.0392,0.0362,0.0328,0.0328,0.0323,0.0305,0.0307,0.0307,0.0312,0.0321,0.0299,0.0306,0.0312,0.0234,0.0234,0.0234,0,0,0.0424,0.0428,0.0454,0.0463,0.0472,0.0468,0.0475,0.0468,0.0466,0.0469,0.0435,0.0419,0.039,0.0374,0.0361,0.039,0.0344,0.0378,0.043,0.0411,0.0417,0.0422,0.0385,0.0386,0.038,0.038,0.0381,0,0.0428,0.0466,0.046,0.0489,0.0505,0.0484,0.0517,0.0513,0.0501,0.051,0.0483,0.0453,0.0416,0.0426,0.0432,0.0408,0.0382,0.0406,0.0422,0.0426,0.043,0.039,0.039,0.0385,0.0384,0.0384,0.0383,0,0.0477,0.0506,0.0522,0.0557,0.0569,0.0594,0.0596,0.0604,0.0593,0.0588,0.0594,0.0545,0.0529,0.0511,0.0479,0.049,0.0458,0.0436,0.0407,0.0443,0.0398,0.0396,0.0391,0.039,0.0388,0.0387,0,0,0.05,0.0548,0.0557,0.0592,0.0612,0.0634,0.0661,0.069,0.0722,0.0691,0.0723,0.0681,0.0651,0.0634,0.0589,0.0565,0.0554,0.0515,0.0512,0.0488,0.0501,0.0492,0.0489,0.0538,0.0538,0.0539,0.0456,0,0.0546,0.0619,0.0628,0.0697,0.0738,0.0735,0.0769,0.0787,0.0791,0.0811,0.0765,0.0767,0.0701,0.0692,0.0662,0.0588,0.0556,0.0578,0.0461,0.0458,0.0455,0.0489,0.0529,0.0461,0.0454,0.0454,0.0454,0,0.0601,0.0647,0.0725,0.0791,0.0809,0.0839,0.0903,0.0934,0.0949,0.0951,0.0941,0.0895,0.0858,0.079,0.069,0.0708,0.0614,0.0545,0.054,0.0504,0.0448,0.0425,0.0458,0.0373,0.0451,0.0451,0.0451,0,0.0644,0.0719,0.0789,0.0811,0.0874,0.0909,0.0941,0.0977,0.1026,0.1038,0.1056,0.1006,0.0983,0.0872,0.0725,0.0707,0.0607,0.0561,0.0462,0.0458,0.0456,0.0453,0.0406,0.0487,0.0488,0.0488,0.0488,0,0.0703,0.0759,0.0816,0.0857,0.0949,0.0968,0.1063,0.1087,0.1134,0.1208,0.113,0.1163,0.1004,0.0921,0.077,0.0624,0.064,0.0482,0.0448,0.0485,0.0486,0.0381,0.0319,0.0485,0.0485,0.0486,0.0486,0,0.0747,0.0782,0.0868,0.0944,0.0974,0.1042,0.1141,0.1209,0.1235,0.1325,0.1326,0.1284,0.1187,0.101,0.0835,0.0696,0.049,0.0479,0.0526,0.05,0.0328,0.0269,0.0153,0.0119,0.0357,0.0357,0.0356,0,0.0777,0.0826,0.0931,0.0989,0.1028,0.1126,0.1199,0.126,0.1341,0.1411,0.146,0.1388,0.1377,0.1112,0.0859,0.0605,0.0484,0.0454,0.0426,0.034,0.0248,0.0195,0.0171,0.0443,0.0443,0.0443,0.0443,0,0.0834,0.0868,0.0938,0.1056,0.1143,0.1256,0.1362,0.1442,0.153,0.1607,0.1693,0.1684,0.1447,0.1241,0.0891,0.0699,0.0414,0.045,0.0358,0.0317,0.0261,0.0205,0.0455,0.0446,0.0445,0.0445,0.0445,0.0445,0.087,0.0929,0.1017,0.1132,0.1235,0.1371,0.1472,0.1596,0.1745,0.1878,0.1874,0.191,0.1595,0.1139,0.0877,0.0446,0.0419,0.0318,0.0252,0.0204,0.0188,0.044,0.0397,0.0396,0.0396,0.0396,0.0395,0,0.0913,0.0983,0.1087,0.1223,0.1333,0.1388,0.1572,0.1687,0.1873,0.2014,0.2103,0.1999,0.1613,0.1186,0.0598,0.0314,0.0203,0.0155,0.01,0.0082,0.0309,0.0334,0.0282,0.0282,0.0283,0.0283,0.0283,0.0283,0.094,0.1034,0.109,0.1275,0.1373,0.154,0.1649,0.1834,0.1984,0.2168,0.2228,0.2237,0.1929,0.0915,0.0282,0.0136,-0.0039,-0.0093,-0.0188,-0.002,-0.0009,0.0001,0.0012,-0.0107,-0.0108,-0.0358,-0.0361,-0.0363]}],[{"header":{"parameterUnit":"m.s-1","parameterCategory":2,"la1":30.2991,"la2":30.254,"lo1":-89.0895,"lo2":-89.0444,"dy":0.0017,"dx":0.0017,"nx":28,"ny":28,"refTime":"2024-06-23T09:00:00:Z","depth":"2","parameterNumber":2,"parameterNumberName":"U-component_of_CURRENTS"},"data":[0,0,0,0,0,0,0,0,0,0,0,0,0,0,0,0,0,0,0,0,0,0,0,0,0,0,0,0,0,0,0,0,0,0,0,0,0,0,0,0,0,0,0,0,0,0,0,0,0,0,0,0,0,0,0,0,0,0,0.2861,0.2862,0,0.289,0.289,0.289,0.2904,0.2904,0.2905,0.2905,0.2976,0.2977,0.2979,0,0,0,0,0,0,0,0,0,0,0,0,0,0.2854,0.2854,0.2861,0.2862,0.2863,0.289,0.289,0.289,0.2904,0.2904,0.2905,0.2905,0.2975,0.2977,0.2979,0,0,0,0,0,0,0,0,0,0,0,0,0,0.2864,0.2853,0.2861,0.2875,0.2877,0.289,0.289,0.289,0.2904,0.2905,0.2905,0.2905,0.2975,0.2977,0.2979,0.2986,0,0,0.2987,0.2988,0,0,0,0,0,0,0,0,0.2864,0.2864,0.2872,0.2874,0.2876,0.2896,0.2913,0.2925,0.2904,0.2891,0.2905,0.2905,0.2955,0.2959,0.2958,0.299,0.2993,0.2987,0.2988,0.299,0.299,0,0,0,0,0,0,0,0.2863,0.2863,0.287,0.2873,0.2875,0.2892,0.2893,0.2915,0.2919,0.2892,0.2894,0.2901,0.2956,0.2956,0.296,0.2994,0.2987,0.2989,0.2991,0.2992,0.3038,0.3038,0,0,0,0,0,0,0.2863,0.2862,0.2869,0.2871,0.2874,0.2892,0.2893,0.2887,0.2918,0.2923,0.2901,0.2902,0.2952,0.2958,0.2963,0.3014,0.299,0.2992,0.2993,0.3038,0.3038,0.3038,0,0,0,0,0,0,0.2862,0.2862,0.2868,0.2871,0.2873,0.2891,0.2885,0.2888,0.2904,0.2924,0.293,0.2917,0.2952,0.296,0.2982,0.3016,0.2993,0.2995,0.3039,0.3038,0.3038,0.309,0,0,0,0,0,0,0.2862,0.2862,0.2864,0.287,0.2873,0.2886,0.2885,0.2888,0.2909,0.291,0.294,0.2946,0.2953,0.2978,0.2984,0.3019,0.2997,0.3039,0.3039,0.3038,0.3089,0.3092,0.3094,0,0,0,0,0,0.2861,0.2861,0.2863,0.2865,0.2872,0.2887,0.289,0.2903,0.2909,0.2919,0.2928,0.2946,0.298,0.298,0.2987,0.3023,0.3039,0.3039,0.3038,0.3088,0.3091,0.3094,0,0,0,0,0,0,0.2858,0.2863,0.2866,0.2867,0.2882,0.2891,0.2905,0.2913,0.2927,0.2932,0.2946,0.2952,0.299,0.2985,0.2985,0.3029,0.3012,0.3013,0.3047,0.305,0.3053,0.3058,0.2999,0,0,0,0,0,0.2858,0.286,0.287,0.2874,0.2883,0.2896,0.2907,0.2916,0.2928,0.2936,0.2952,0.2966,0.299,0.3003,0.3019,0.3043,0.3044,0.3066,0.3068,0.3071,0.3076,0.3101,0.3107,0.3036,0.3036,0.3036,0,0,0.2857,0.2862,0.2863,0.2874,0.2886,0.2901,0.2903,0.2925,0.2941,0.2942,0.2969,0.2985,0.2997,0.3026,0.3042,0.303,0.3089,0.307,0.3073,0.3077,0.3101,0.3108,0.3115,0.3036,0.3036,0.3036,0,0,0.2858,0.2863,0.2867,0.2882,0.2907,0.2916,0.2926,0.2943,0.2957,0.2981,0.2989,0.3015,0.3043,0.3058,0.307,0.3093,0.3108,0.3101,0.3122,0.3146,0.3153,0.3159,0.3165,0.3171,0.3097,0.3098,0.3098,0,0.2862,0.286,0.2873,0.2887,0.2902,0.2924,0.2938,0.2957,0.2978,0.2997,0.2995,0.3046,0.3059,0.3102,0.3107,0.3106,0.3113,0.3116,0.3154,0.3159,0.3165,0.3169,0.3175,0.31,0.31,0.3099,0.3099,0,0.2865,0.2871,0.2879,0.2898,0.2919,0.2935,0.2964,0.2989,0.301,0.3031,0.3081,0.3092,0.3123,0.3133,0.3131,0.3178,0.3169,0.3163,0.3153,0.3176,0.3177,0.3183,0.3104,0.3103,0.3102,0.3101,0,0,0.2846,0.2873,0.2876,0.2883,0.2926,0.2937,0.298,0.3019,0.3052,0.3083,0.3123,0.3163,0.318,0.3192,0.3199,0.3215,0.3257,0.3206,0.3206,0.3226,0.3304,0.3239,0.3239,0.3267,0.3268,0.3269,0.3289,0,0.2843,0.2859,0.2879,0.2899,0.2909,0.295,0.2985,0.3031,0.3075,0.312,0.3157,0.32,0.3201,0.3221,0.3244,0.3262,0.3275,0.3251,0.3267,0.3267,0.3219,0.3244,0.298,0.2971,0.3295,0.3295,0.3296,0,0.283,0.2845,0.286,0.2893,0.2903,0.2926,0.299,0.3029,0.3111,0.3149,0.321,0.3239,0.3289,0.3272,0.3325,0.3315,0.3314,0.3315,0.3316,0.3241,0.3212,0.3,0.2969,0.3305,0.3304,0.3304,0.3303,0,0.2794,0.2825,0.2832,0.2845,0.2894,0.2918,0.2959,0.3042,0.3085,0.3177,0.3214,0.3283,0.3319,0.3342,0.3361,0.335,0.3403,0.3383,0.3319,0.3314,0.3084,0.3056,0.3407,0.3407,0.3407,0.3407,0.3407,0,0.2768,0.2771,0.2816,0.282,0.2845,0.2898,0.2948,0.3007,0.3097,0.3149,0.3228,0.3278,0.3341,0.338,0.3381,0.3375,0.3424,0.3329,0.3321,0.3092,0.3066,0.3349,0.3342,0.3408,0.3408,0.3408,0.3408,0,0.2713,0.2741,0.275,0.2804,0.2824,0.2847,0.2935,0.2969,0.3071,0.3142,0.3171,0.3289,0.335,0.3388,0.343,0.3394,0.3393,0.3372,0.3095,0.3053,0.3278,0.3274,0.3298,0.3296,0.3294,0.3293,0.3292,0,0.2681,0.268,0.2729,0.2736,0.2758,0.2808,0.2838,0.2946,0.2986,0.3141,0.3156,0.3264,0.3308,0.3355,0.3313,0.3293,0.3371,0.303,0.2956,0.3281,0.327,0.3268,0.3266,0.2663,0.2657,0.2652,0.2648,0,0.2623,0.2643,0.2652,0.2676,0.2698,0.2722,0.2779,0.2807,0.293,0.2984,0.3071,0.3128,0.3195,0.3069,0.3061,0.3018,0.3013,0.2926,0.3335,0.2744,0.2687,0.2676,0.2693,0.2603,0.2607,0.261,0.2613,0.2615,0.2578,0.2569,0.2588,0.2589,0.2616,0.2618,0.2597,0.2657,0.2696,0.2744,0.2895,0.288,0.2901,0.2764,0.2663,0.258,0.279,0.2644,0.2657,0.2676,0.2611,0.2556,0.2433,0.2437,0.244,0.2442,0.2445,0,0.2501,0.2497,0.2499,0.2486,0.2454,0.2515,0.2525,0.2473,0.245,0.2541,0.258,0.2378,0.2291,0.2315,0.2109,0.2091,0.2049,0.2006,0.1921,0.1969,0.2011,0.1909,0.1546,0.1543,0.154,0.1538,0,0,0.2462,0.2419,0.2404,0.2316,0.2309,0.2233,0.2208,0.216,0.2173,0.2121,0.2089,0.2241,0.2282,0.1904,0.1833,0.1655,0.1806,0.1592,0.2318,0.227,0.2308,0.2388,0.2288,0,0,0,0,0]},{"header":{"parameterUnit":"m.s-1","parameterCategory":2,"la1":30.2991,"la2":30.254,"lo1":-89.0895,"lo2":-89.0444,"dy":0.0017,"dx":0.0017,"nx":28,"ny":28,"refTime":"2024-06-23T09:00:00:Z","depth":"2","parameterNumber":3,"parameterNumberName":"V-component_of_CURRENTS"},"data":[0,0,0,0,0,0,0,0,0,0,0,0,0,0,0,0,0,0,0,0,0,0,0,0,0,0,0,0,0,0,0,0,0,0,0,0,0,0,0,0,0,0,0,0,0,0,0,0,0,0,0,0,0,0,0,0,0,0,0.0358,0.0358,0,0.0345,0.0345,0.0344,0.0324,0.0324,0.0324,0.0323,0.0277,0.0276,0.0275,0,0,0,0,0,0,0,0,0,0,0,0,0,0.0325,0.0326,0.0358,0.0358,0.0358,0.0345,0.0345,0.0344,0.0324,0.0324,0.0324,0.0323,0.0277,0.0276,0.0275,0,0,0,0,0,0,0,0,0,0,0,0,0,0.0328,0.0327,0.0358,0.0347,0.0346,0.0345,0.0345,0.0344,0.0324,0.0324,0.0324,0.0323,0.0278,0.0276,0.0275,0.0275,0,0,0.027,0.027,0,0,0,0,0,0,0,0,0.0328,0.0329,0.0349,0.0348,0.0347,0.0336,0.0316,0.032,0.0325,0.0332,0.0323,0.0323,0.0295,0.0292,0.029,0.0272,0.027,0.027,0.0269,0.0269,0.0268,0,0,0,0,0,0,0,0.0328,0.0329,0.0352,0.0349,0.0347,0.0328,0.0329,0.0316,0.0315,0.0331,0.033,0.033,0.0294,0.0291,0.0288,0.027,0.027,0.0269,0.0268,0.0268,0.0258,0.0259,0,0,0,0,0,0,0.0334,0.033,0.0353,0.0352,0.0337,0.033,0.033,0.034,0.0316,0.0312,0.033,0.0329,0.0294,0.029,0.0287,0.03,0.0269,0.0268,0.0267,0.0257,0.0258,0.0259,0,0,0,0,0,0,0.0333,0.0336,0.0353,0.034,0.0341,0.0331,0.0342,0.034,0.0339,0.0315,0.0311,0.0332,0.0293,0.0289,0.0286,0.0297,0.0267,0.0266,0.0257,0.0258,0.0258,0.0316,0,0,0,0,0,0,0.0333,0.0337,0.0345,0.0341,0.0342,0.0363,0.0342,0.034,0.034,0.0338,0.0315,0.031,0.0293,0.0289,0.0285,0.0294,0.0264,0.0256,0.0257,0.0258,0.0313,0.0319,0.0323,0,0,0,0,0,0.0332,0.0348,0.0346,0.0349,0.0355,0.0364,0.0363,0.0353,0.034,0.0349,0.0333,0.0311,0.0293,0.0288,0.0284,0.0293,0.0255,0.0257,0.0258,0.0311,0.0318,0.0323,0,0,0,0,0,0,0.0334,0.0348,0.0345,0.0364,0.0368,0.0361,0.0367,0.0358,0.0352,0.0349,0.0322,0.0317,0.0317,0.0299,0.0294,0.0293,0.0269,0.027,0.0311,0.0317,0.0322,0.0336,0.0263,0,0,0,0,0,0.0341,0.036,0.0364,0.0379,0.0383,0.0375,0.0376,0.0372,0.0366,0.0363,0.0344,0.0327,0.0319,0.0314,0.0301,0.0303,0.0276,0.0305,0.031,0.0315,0.0323,0.0295,0.0298,0.0263,0.0263,0.0263,0,0,0.0344,0.0355,0.0364,0.0381,0.0382,0.0399,0.0375,0.0385,0.0398,0.0359,0.0366,0.0344,0.0324,0.0327,0.0325,0.0313,0.0309,0.0316,0.032,0.0326,0.0296,0.03,0.0302,0.0264,0.0264,0.0264,0,0,0.0367,0.0374,0.0399,0.0408,0.0419,0.0418,0.0423,0.042,0.042,0.0427,0.04,0.0387,0.0373,0.036,0.0352,0.0377,0.0337,0.0371,0.0409,0.0381,0.0384,0.0386,0.0351,0.0349,0.0374,0.0374,0.0374,0,0.037,0.0406,0.0405,0.0431,0.0445,0.043,0.0458,0.0458,0.0452,0.0457,0.0438,0.0416,0.0391,0.0397,0.0403,0.0388,0.0365,0.0388,0.0388,0.0389,0.039,0.0354,0.0352,0.0377,0.0377,0.0376,0.0376,0,0.0413,0.044,0.0455,0.0488,0.05,0.0523,0.0525,0.0532,0.0524,0.0518,0.052,0.0484,0.0472,0.0458,0.0439,0.0438,0.0415,0.0397,0.0373,0.0397,0.0357,0.0354,0.0381,0.038,0.0379,0.0379,0,0,0.0431,0.0478,0.0485,0.0514,0.0535,0.0555,0.0577,0.0599,0.0622,0.0597,0.0617,0.0586,0.0558,0.0547,0.0513,0.0486,0.0462,0.045,0.0447,0.0417,0.0397,0.0384,0.0378,0.0445,0.0445,0.0445,0.0365,0,0.0468,0.0532,0.0543,0.0602,0.0636,0.0636,0.0664,0.0676,0.0678,0.0689,0.0647,0.0648,0.0596,0.0591,0.0556,0.0492,0.0456,0.0485,0.0377,0.0374,0.0361,0.0375,0.039,0.0321,0.0361,0.036,0.036,0,0.0512,0.0553,0.0619,0.0676,0.0691,0.0718,0.0767,0.0793,0.0798,0.0798,0.0782,0.0743,0.0704,0.0653,0.0553,0.0575,0.0493,0.0433,0.0428,0.0395,0.0354,0.0304,0.0312,0.0353,0.0354,0.0354,0.0355,0,0.0542,0.0608,0.0667,0.0687,0.0742,0.0771,0.0799,0.0824,0.0865,0.0866,0.088,0.0824,0.0804,0.0699,0.0572,0.0562,0.0454,0.0421,0.0328,0.0326,0.0308,0.0304,0.0344,0.0344,0.0344,0.0344,0.0344,0,0.0586,0.0633,0.0687,0.0722,0.0799,0.0817,0.0894,0.0913,0.0949,0.1008,0.0939,0.0959,0.0815,0.0734,0.0602,0.0462,0.0474,0.0339,0.0309,0.0328,0.0327,0.0332,0.0332,0.0341,0.0342,0.0342,0.0343,0,0.0614,0.0649,0.0723,0.079,0.0818,0.0874,0.0963,0.1019,0.1038,0.1109,0.1111,0.1063,0.0964,0.0804,0.0639,0.0514,0.037,0.0313,0.0342,0.0317,0.0247,0.0251,0.0199,0.0198,0.0197,0.0196,0.0196,0,0.0636,0.0677,0.0773,0.0826,0.0861,0.0947,0.1013,0.1065,0.1133,0.1181,0.122,0.1143,0.1114,0.086,0.0633,0.0402,0.0367,0.0252,0.0232,0.026,0.0235,0.024,0.0244,0.0222,0.0222,0.0221,0.0221,0,0.0675,0.0708,0.0771,0.0879,0.0959,0.1061,0.1155,0.1222,0.1295,0.135,0.1404,0.1378,0.1151,0.0934,0.0617,0.0454,0.029,0.0238,0.0262,0.0264,0.0277,0.0254,0.0259,0.0219,0.0219,0.0219,0.0219,0.0219,0.0702,0.0753,0.0835,0.094,0.1036,0.116,0.1247,0.1351,0.1468,0.1554,0.1536,0.15,0.1249,0.0851,0.0573,0.0273,0.0291,0.0171,0.0174,0.0176,0.0201,0.0213,0.0146,0.0146,0.0146,0.0146,0.0145,0,0.0736,0.0799,0.0891,0.1017,0.1119,0.1175,0.1335,0.1425,0.1565,0.1638,0.1682,0.1432,0.1185,0.0881,0.045,0.0197,0.0171,0.0097,0.0127,0.0132,0.0136,0.016,0.0092,0.0091,0.0091,0.009,0,0,0.0757,0.0841,0.0891,0.1059,0.1153,0.1303,0.1399,0.1534,0.1625,0.1694,0.1676,0.1634,0.1279,0.0954,0.0606,0.0353,0.0297,0.0292,0.0363,0.0445,0.0452,0.0206,0.0252,0,0,0,0,0]}],[{"header":{"parameterUnit":"m.s-1","parameterCategory":2,"la1":30.2991,"la2":30.254,"lo1":-89.0895,"lo2":-89.0444,"dy":0.0017,"dx":0.0017,"nx":28,"ny":28,"refTime":"2024-06-23T09:00:00:Z","depth":"4","parameterNumber":2,"parameterNumberName":"U-component_of_CURRENTS"},"data":[0,0,0,0,0,0,0,0,0,0,0,0,0,0,0,0,0,0,0,0,0,0,0,0,0,0,0,0,0,0,0,0,0,0,0,0,0,0,0,0,0,0,0,0,0,0,0,0,0,0,0,0,0,0,0,0,0,0,0.1742,0.1742,0,0.1785,0.1785,0.1786,0.1837,0.1838,0.1839,0.184,0.1903,0.1904,0.1905,0,0,0,0,0,0,0,0,0,0,0,0,0,0.1713,0.1713,0.1742,0.1742,0.1743,0.1785,0.1785,0.1786,0.1837,0.1838,0.1839,0.184,0.1903,0.1904,0.1905,0,0,0,0,0,0,0,0,0,0,0,0,0,0.1737,0.1713,0.1742,0.1775,0.1778,0.1785,0.1785,0.1786,0.1837,0.1838,0.1839,0.1841,0.1903,0.1904,0.1905,0.1886,0,0,0.1909,0.191,0,0,0,0,0,0,0,0,0.1735,0.1737,0.1769,0.1772,0.1776,0.1808,0.1799,0.1821,0.1836,0.1813,0.184,0.1841,0.1873,0.1877,0.188,0.1889,0.1892,0.1909,0.191,0.191,0.1911,0,0,0,0,0,0,0,0.1734,0.1736,0.1758,0.177,0.1774,0.179,0.1795,0.1803,0.1834,0.1815,0.1819,0.1826,0.1875,0.1879,0.1882,0.1893,0.1909,0.191,0.1911,0.1912,0.201,0.2012,0,0,0,0,0,0,0.1729,0.1734,0.1756,0.1759,0.176,0.179,0.1795,0.1795,0.1834,0.1841,0.1824,0.1828,0.1876,0.188,0.1884,0.1969,0.191,0.1912,0.1912,0.2008,0.201,0.2012,0,0,0,0,0,0,0.1728,0.173,0.1755,0.1749,0.1754,0.1789,0.1789,0.1796,0.184,0.1841,0.1849,0.1867,0.1877,0.1883,0.1928,0.1968,0.1912,0.1913,0.2006,0.2009,0.2011,0.2071,0,0,0,0,0,0,0.1726,0.1729,0.1748,0.1748,0.1754,0.1784,0.1788,0.1796,0.1839,0.1845,0.1879,0.1884,0.1878,0.1926,0.1929,0.1969,0.1914,0.2004,0.2007,0.201,0.2067,0.2076,0.2083,0,0,0,0,0,0.1725,0.1734,0.1748,0.1752,0.1772,0.1786,0.1791,0.1819,0.1841,0.1863,0.189,0.1885,0.1951,0.1928,0.1931,0.1973,0.2002,0.2006,0.201,0.2063,0.2074,0.2083,0,0,0,0,0,0,0.1729,0.174,0.1756,0.1769,0.1791,0.1796,0.1823,0.1841,0.1879,0.1898,0.1902,0.1908,0.1968,0.196,0.1936,0.2013,0.1978,0.1983,0.2017,0.2027,0.2035,0.2042,0.1915,0,0,0,0,0,0.1738,0.1754,0.1765,0.1782,0.1797,0.1819,0.1838,0.1857,0.188,0.1901,0.1922,0.195,0.1979,0.1997,0.2018,0.2051,0.2049,0.2083,0.2091,0.2098,0.2107,0.2142,0.2154,0.2026,0.2026,0.2026,0,0,0.1744,0.1755,0.1764,0.1787,0.1808,0.1828,0.1835,0.1873,0.1901,0.19,0.1958,0.1984,0.1997,0.2042,0.2068,0.2045,0.2132,0.2103,0.2109,0.2114,0.2148,0.216,0.2171,0.2029,0.2028,0.2028,0,0,0.175,0.1777,0.179,0.1812,0.1851,0.1863,0.1884,0.1913,0.1946,0.1994,0.2009,0.206,0.2095,0.2113,0.2125,0.219,0.2179,0.2205,0.2246,0.228,0.2291,0.23,0.2305,0.2315,0.2202,0.2203,0.2203,0,0.1765,0.1775,0.1799,0.1819,0.1843,0.1883,0.1906,0.1937,0.1982,0.2016,0.2027,0.2113,0.2128,0.2182,0.2211,0.221,0.2218,0.2205,0.229,0.23,0.2308,0.2311,0.2321,0.2206,0.2206,0.2205,0.2205,0,0.1766,0.1795,0.1809,0.1846,0.1876,0.1906,0.1946,0.1996,0.2045,0.2076,0.2162,0.2188,0.224,0.2257,0.2256,0.2329,0.2312,0.23,0.2262,0.2324,0.2324,0.2332,0.2211,0.221,0.2209,0.2208,0,0,0.1746,0.1799,0.181,0.1836,0.1897,0.1916,0.1981,0.2041,0.2096,0.2159,0.2226,0.2291,0.2326,0.2342,0.2355,0.2386,0.2454,0.2377,0.2377,0.2376,0.2519,0.2352,0.2344,0.2462,0.2464,0.2466,0.249,0,0.1748,0.1783,0.1814,0.1864,0.1886,0.195,0.2002,0.2071,0.214,0.2216,0.2275,0.2346,0.235,0.2392,0.2428,0.2457,0.2482,0.2447,0.2464,0.2464,0.2303,0.2351,0.2473,0.2496,0.2498,0.25,0.2501,0,0.1735,0.1764,0.1808,0.1876,0.1895,0.194,0.2044,0.2099,0.2212,0.2271,0.2359,0.2405,0.2485,0.2472,0.2549,0.2531,0.2537,0.2543,0.2544,0.2373,0.2313,0.2425,0.2516,0.2515,0.2514,0.2513,0.2512,0,0.1694,0.1758,0.1796,0.182,0.1903,0.1956,0.2018,0.213,0.2191,0.2323,0.2382,0.2475,0.2536,0.2572,0.2601,0.2589,0.2662,0.2637,0.2485,0.2472,0.2589,0.2579,0.2682,0.2682,0.2682,0.2682,0.2682,0,0.1661,0.1697,0.179,0.181,0.1876,0.1949,0.2041,0.2121,0.2241,0.231,0.2417,0.2472,0.2571,0.2619,0.2626,0.2579,0.2684,0.2498,0.2472,0.2612,0.2604,0.2594,0.2583,0.2683,0.2683,0.2683,0.2683,0,0.1601,0.1661,0.1711,0.1815,0.1857,0.1912,0.2047,0.2101,0.2233,0.2328,0.2374,0.2501,0.2559,0.2615,0.2673,0.2591,0.2573,0.2528,0.2671,0.2653,0.2351,0.2344,0.2349,0.2344,0.2339,0.2335,0.2332,0,0.1565,0.1588,0.1708,0.1745,0.1801,0.1897,0.1953,0.2091,0.2143,0.2318,0.2337,0.2455,0.2517,0.2452,0.2533,0.2516,0.2487,0.2446,0.2398,0.2344,0.2321,0.2321,0.232,0.2324,0.2323,0.2322,0.232,0,0.15,0.1564,0.1606,0.1687,0.1755,0.1812,0.1905,0.1929,0.2075,0.2211,0.2242,0.2266,0.232,0.2348,0.2351,0.2339,0.2455,0.2396,0.2405,0.2359,0.2314,0.2295,0.23,0.2304,0.2306,0.2308,0.2309,0,0.1461,0.1476,0.1548,0.16,0.168,0.1695,0.176,0.1803,0.187,0.2049,0.2059,0.2179,0.2303,0.2257,0.2266,0.2236,0.2195,0.2102,0.2125,0.2144,0.2065,0.1977,0.1844,0,0,0,0,0,0.1409,0.1405,0.145,0.1487,0.1558,0.1602,0.1704,0.1766,0.1905,0.1869,0.1956,0.1995,0.201,0.2075,0.2001,0.2176,0.2207,0.2078,0.2112,0.2213,0.2232,0.2157,0,0,0,0,0,0,0.1369,0.1407,0.1408,0.1381,0.1385,0.144,0.1499,0.1594,0.1576,0.173,0.1749,0.1862,0.1909,0.2031,0.1961,0.1977,0.1951,0.2156,0.215,0.2202,0.2219,0.2235,0.2164,0,0,0,0,0]},{"header":{"parameterUnit":"m.s-1","parameterCategory":2,"la1":30.2991,"la2":30.254,"lo1":-89.0895,"lo2":-89.0444,"dy":0.0017,"dx":0.0017,"nx":28,"ny":28,"refTime":"2024-06-23T09:00:00:Z","depth":"4","parameterNumber":3,"parameterNumberName":"V-component_of_CURRENTS"},"data":[0,0,0,0,0,0,0,0,0,0,0,0,0,0,0,0,0,0,0,0,0,0,0,0,0,0,0,0,0,0,0,0,0,0,0,0,0,0,0,0,0,0,0,0,0,0,0,0,0,0,0,0,0,0,0,0,0,0,0.0306,0.0306,0,0.031,0.031,0.031,0.0308,0.0308,0.0307,0.0307,0.03,0.03,0.03,0,0,0,0,0,0,0,0,0,0,0,0,0,0.0271,0.0272,0.0306,0.0306,0.0306,0.031,0.031,0.031,0.0308,0.0308,0.0307,0.0307,0.03,0.03,0.03,0,0,0,0,0,0,0,0,0,0,0,0,0,0.0282,0.0272,0.0306,0.0305,0.0305,0.031,0.031,0.031,0.0308,0.0308,0.0307,0.0307,0.03,0.03,0.03,0.0304,0,0,0.03,0.03,0,0,0,0,0,0,0,0,0.0281,0.0283,0.0305,0.0305,0.0305,0.0308,0.0295,0.0307,0.0308,0.0307,0.0307,0.0307,0.0302,0.0302,0.0303,0.0303,0.0303,0.03,0.03,0.03,0.03,0,0,0,0,0,0,0,0.0281,0.0283,0.0308,0.0305,0.0305,0.0296,0.0298,0.0297,0.0305,0.0307,0.0307,0.0307,0.0302,0.0303,0.0303,0.0303,0.03,0.03,0.03,0.03,0.0315,0.0316,0,0,0,0,0,0,0.0282,0.0282,0.0308,0.0308,0.0292,0.0297,0.0299,0.0307,0.0306,0.0305,0.0307,0.0307,0.0304,0.0303,0.0303,0.0323,0.03,0.03,0.03,0.0315,0.0315,0.0316,0,0,0,0,0,0,0.0281,0.0284,0.0307,0.0294,0.0297,0.0298,0.0308,0.0308,0.0314,0.0306,0.0305,0.0314,0.0303,0.0303,0.0313,0.0322,0.03,0.03,0.0314,0.0315,0.0315,0.0353,0,0,0,0,0,0,0.028,0.0284,0.0294,0.0295,0.0298,0.032,0.0308,0.0308,0.0314,0.0314,0.0312,0.0311,0.0303,0.0313,0.0313,0.0322,0.03,0.0314,0.0314,0.0315,0.0351,0.0355,0.0358,0,0,0,0,0,0.0279,0.0294,0.0294,0.0297,0.031,0.0321,0.0322,0.0321,0.0315,0.0325,0.0323,0.0311,0.0318,0.0314,0.0313,0.0322,0.0313,0.0314,0.0315,0.035,0.0354,0.0358,0,0,0,0,0,0,0.0282,0.0295,0.0295,0.0314,0.032,0.032,0.033,0.0326,0.0332,0.0333,0.0321,0.0321,0.033,0.0322,0.0318,0.0328,0.0312,0.0313,0.0338,0.0342,0.0346,0.0349,0.0299,0,0,0,0,0,0.0288,0.0306,0.0311,0.0326,0.0331,0.0331,0.0335,0.0336,0.0339,0.0342,0.0337,0.0333,0.0333,0.0336,0.0333,0.0344,0.0319,0.0347,0.0351,0.0354,0.0356,0.0324,0.0325,0.0319,0.0319,0.0319,0,0,0.0292,0.0303,0.0312,0.0329,0.0334,0.0349,0.0334,0.0348,0.0361,0.034,0.0356,0.0346,0.0338,0.0348,0.0352,0.0345,0.0342,0.0355,0.0358,0.0358,0.0325,0.0326,0.0326,0.032,0.032,0.032,0,0,0.031,0.0321,0.0341,0.0351,0.0365,0.0366,0.0372,0.0376,0.0381,0.0396,0.038,0.0374,0.0381,0.0371,0.0369,0.039,0.036,0.0391,0.0414,0.0384,0.0384,0.0384,0.0353,0.0349,0.0395,0.0395,0.0395,0,0.0315,0.0343,0.0348,0.0369,0.0382,0.0377,0.0399,0.0404,0.041,0.0414,0.0408,0.0402,0.039,0.0395,0.0402,0.0397,0.0376,0.04,0.0388,0.0387,0.0386,0.0354,0.035,0.0397,0.0396,0.0396,0.0396,0,0.0346,0.037,0.0384,0.0411,0.0424,0.0444,0.0451,0.0461,0.0462,0.046,0.0466,0.0448,0.0443,0.0436,0.0428,0.042,0.0406,0.0394,0.0377,0.0389,0.0355,0.035,0.0399,0.0399,0.0398,0.0398,0,0,0.0356,0.0398,0.0405,0.0428,0.0451,0.0467,0.0489,0.0507,0.0524,0.0515,0.0528,0.0514,0.0495,0.049,0.047,0.0444,0.0415,0.0422,0.0419,0.039,0.0348,0.033,0.0322,0.0402,0.0401,0.0401,0.0327,0,0.0381,0.043,0.0444,0.0491,0.0517,0.0525,0.0549,0.0562,0.0567,0.0576,0.0547,0.0553,0.0519,0.0521,0.0487,0.0438,0.0404,0.0436,0.0342,0.0339,0.032,0.0317,0.0399,0.0323,0.0322,0.0321,0.032,0,0.0408,0.044,0.0492,0.054,0.0553,0.0579,0.0619,0.0643,0.0647,0.065,0.0637,0.0613,0.058,0.0548,0.0459,0.0483,0.0419,0.0372,0.0367,0.0334,0.0311,0.0308,0.0311,0.0311,0.0312,0.0313,0.0313,0,0.0418,0.0474,0.052,0.0538,0.0588,0.0615,0.0643,0.0664,0.0697,0.0699,0.071,0.0661,0.0649,0.056,0.0462,0.0461,0.0356,0.034,0.0258,0.0256,0.0277,0.0278,0.0265,0.0265,0.0265,0.0266,0.0266,0,0.044,0.0478,0.0533,0.056,0.0623,0.0645,0.0708,0.0727,0.0757,0.0797,0.0752,0.076,0.0652,0.058,0.0476,0.0354,0.0363,0.0258,0.0235,0.0295,0.0299,0.0273,0.0275,0.0263,0.0263,0.0264,0.0264,0,0.0445,0.0481,0.054,0.0604,0.0633,0.0679,0.0763,0.0805,0.0826,0.0874,0.0878,0.0836,0.0746,0.0622,0.0481,0.0384,0.0261,0.0213,0.029,0.0272,0.0175,0.018,0.0112,0.011,0.0109,0.0108,0.0108,0,0.0452,0.0484,0.0574,0.0621,0.0657,0.0732,0.079,0.084,0.0888,0.0921,0.0942,0.0877,0.0827,0.0616,0.0479,0.0273,0.0239,0.0166,0.0162,0.0175,0.0159,0.0165,0.0172,0.0106,0.0106,0.0105,0.0105,0,0.0463,0.05,0.0552,0.0647,0.072,0.0805,0.0885,0.0923,0.0982,0.0998,0.0991,0.0887,0.0784,0.062,0.0462,0.0312,0.0208,0.0154,0.0155,0.0151,0.0167,0.0154,0.0161,0.0101,0.0102,0.0102,0.0102,0,0.0473,0.051,0.0584,0.0671,0.0763,0.0852,0.0895,0.0952,0.1,0.1029,0.1025,0.0914,0.086,0.0641,0.0496,0.0347,0.0301,0.0236,0.0232,0.0234,0.0287,0.0327,0.0288,0,0,0,0,0,0.048,0.0526,0.0602,0.0699,0.0791,0.0851,0.0951,0.0988,0.1038,0.1038,0.1034,0.0937,0.0731,0.065,0.0496,0.0459,0.0265,0.0271,0.0186,0.008,0.0085,0.0124,0,0,0,0,0,0,0.0486,0.0554,0.0597,0.0709,0.0777,0.0884,0.0951,0.0989,0.099,0.1013,0.0912,0.0874,0.068,0.0815,0.0485,0.0443,0.0361,0.0184,0.018,0.0078,0.0082,0.0085,0.0127,0,0,0,0,0]}]]